EW9596 Weather Reports


Display with metric or nautical units.
time (UTC)temp
F
wind
direction
speed
MPH
gust
MPH
rain 1hr
in
rain 24hr
in
rain mn
in
humidity
%
barometer
mb
20260831051010 67 220 0.0 1.0 0.00 0.00 0.00 82 1020.6
20260831050509 67 220 0.0 0.0 0.00 0.00 0.00 82 1020.6
20260831050009 67 220 0.0 0.0 0.00 0.00 0.00 82 1020.6
20260831045510 67 220 0.0 1.0 0.00 0.00 0.00 82 1020.6
20260831045009 67 220 0.0 1.0 0.00 0.00 0.00 82 1020.7
20260831044509 68 220 0.0 0.0 0.00 0.00 0.00 82 1020.7
20260831044008 68 220 0.0 0.0 0.00 0.00 0.00 81 1020.6
20260831043507 68 220 0.0 0.0 0.00 0.00 0.00 81 1020.7
20260831043007 68 220 0.0 0.0 0.00 0.00 0.00 81 1020.6
20260831042507 68 220 0.0 0.0 0.00 0.00 0.00 81 1020.7
20260831042007 68 220 0.0 0.0 0.00 0.00 0.00 81 1020.7
20260831041507 68 220 0.0 0.0 0.00 0.00 0.00 81 1020.7
20260831041010 68 220 0.0 0.0 0.00 0.00 0.00 81 1020.6
20260831040506 68 220 0.0 0.0 0.00 0.00 0.00 81 1020.6
20260831040005 68 220 0.0 0.0 0.00 0.00 0.00 80 1020.5
20260831035504 68 220 0.0 0.0 0.00 0.00 0.00 80 1020.5
20260831035004 68 220 0.0 0.0 0.00 0.00 0.00 80 1020.6
20260831034504 68 220 0.0 0.0 0.00 0.00 0.00 80 1020.7
20260831034003 68 220 0.0 0.0 0.00 0.00 0.00 80 1020.5
20260831033503 68 220 0.0 0.0 0.00 0.00 0.00 80 1020.5
20260831033003 68 220 0.0 0.0 0.00 0.00 0.00 80 1020.6
20260831032503 68 220 0.0 0.0 0.00 0.00 0.00 80 1020.6
20260831032004 68 220 0.0 0.0 0.00 0.00 0.00 80 1020.7
20260831031502 68 220 0.0 0.0 0.00 0.00 0.00 80 1020.7
20260831031002 68 220 0.0 0.0 0.00 0.00 0.00 80 1020.8
20260831030502 68 220 0.0 0.0 0.00 0.00 0.00 79 1020.6
20260831030003 69 220 0.0 0.0 0.00 0.00 0.00 79 1020.6
20260831025502 69 219 0.0 0.0 0.00 0.00 0.00 79 1020.5
20260831025003 69 219 0.0 1.0 0.00 0.00 0.00 79 1020.6
20260831024504 69 219 0.0 2.0 0.00 0.00 0.00 79 1020.6
20260831024001 69 219 0.0 2.0 0.00 0.00 0.00 79 1020.7
20260831023502 69 219 0.0 2.0 0.00 0.00 0.00 79 1020.7
20260831023001 69 233 0.0 0.0 0.00 0.00 0.00 79 1020.7
20260831022502 69 233 0.0 0.0 0.00 0.00 0.00 79 1020.7
20260831022101 69 233 0.0 2.0 0.00 0.00 0.00 79 1020.7
20260831021601 69 233 0.0 3.0 0.00 0.00 0.00 79 1020.7
20260831021103 69 233 0.0 4.0 0.00 0.00 0.00 79 1020.8
20260831020502 69 248 0.0 0.0 0.00 0.00 0.00 79 1020.7
20260831020104 69 174 0.0 0.0 0.00 0.00 0.00 79 1020.8
20260831015601 69 192 0.0 0.0 0.00 0.00 0.00 78 1020.7
20260831015100 69 236 0.0 0.0 0.00 0.00 0.00 78 1020.7
20260831014600 69 170 0.0 2.0 0.00 0.00 0.00 78 1020.7
20260831014101 69 168 0.0 3.0 0.00 0.00 0.00 78 1020.7
20260831013701 69 167 1.0 4.0 0.00 0.00 0.00 78 1020.7
20260831013109 69 272 1.0 5.0 0.00 0.00 0.00 78 1020.6
20260831012600 69 244 2.0 7.0 0.00 0.00 0.00 78 1020.6
20260831012059 69 221 3.0 10.0 0.00 0.00 0.00 78 1020.6
20260831011559 69 232 3.0 10.0 0.00 0.00 0.00 78 1020.6
20260831011102 69 227 4.0 9.0 0.00 0.00 0.00 78 1020.6
20260831010559 69 240 4.0 9.0 0.00 0.00 0.00 78 1020.6
20260831010121 69 184 3.0 8.0 0.00 0.00 0.00 78 1020.5
20260831005559 69 251 3.0 9.0 0.00 0.00 0.00 78 1020.6
20260831005058 69 198 4.0 9.0 0.00 0.00 0.00 78 1020.4
20260831004609 69 244 2.0 8.0 0.00 0.00 0.00 79 1020.5
20260831004101 70 219 1.0 3.0 0.00 0.00 0.00 79 1020.4
20260831003557 70 267 0.0 0.0 0.00 0.00 0.00 79 1020.4
20260831003105 70 267 0.0 0.0 0.00 0.00 0.00 79 1020.1
20260831002557 70 267 0.0 1.0 0.00 0.00 0.00 79 1020.1
20260831002057 70 267 0.0 1.0 0.00 0.00 0.00 78 1019.8
20260831001557 70 267 0.0 1.0 0.00 0.00 0.00 78 1019.7
20260831001057 70 267 0.0 2.0 0.00 0.00 0.00 78 1019.6
20260831000557 70 267 0.0 1.0 0.00 0.00 0.00 78 1019.6
20260831000057 70 267 0.0 3.0 0.00 0.00 0.00 78 1019.6
20260830235559 70 267 0.0 4.0 0.00 0.00 0.00 78 1019.5
20260830235056 70 281 1.0 8.0 0.00 0.00 0.00 78 1019.5
20260830234556 70 254 0.0 2.0 0.00 0.00 0.00 77 1019.4
20260830234056 70 193 0.0 0.0 0.00 0.00 0.00 77 1019.5
20260830233555 70 193 0.0 0.0 0.00 0.00 0.00 77 1019.4
20260830233055 71 193 0.0 0.0 0.00 0.00 0.00 77 1019.4
20260830232554 71 193 0.0 0.0 0.00 0.00 0.00 77 1019.4
20260830232055 71 193 0.0 0.0 0.00 0.00 0.00 76 1019.3
20260830231555 71 193 0.0 0.0 0.00 0.00 0.00 76 1019.3
20260830231054 71 193 0.0 0.0 0.00 0.00 0.00 76 1019.2
20260830230554 71 193 0.0 0.0 0.00 0.00 0.00 76 1019.2
20260830230054 71 193 0.0 0.0 0.00 0.00 0.00 76 1019.3
20260830225554 71 193 0.0 0.0 0.00 0.00 0.00 76 1019.3
20260830225054 71 193 0.0 0.0 0.00 0.00 0.00 76 1019.4
20260830224554 71 193 0.0 0.0 0.00 0.00 0.00 75 1019.3
20260830224055 72 193 0.0 0.0 0.00 0.00 0.00 75 1019.3
20260830223553 72 193 0.0 0.0 0.00 0.00 0.00 75 1019.4
20260830223053 72 193 0.0 0.0 0.00 0.00 0.00 75 1019.3
20260830222552 72 193 0.0 0.0 0.00 0.00 0.00 75 1019.1
20260830222052 72 193 0.0 0.0 0.00 0.00 0.00 75 1019.2
20260830221552 72 193 0.0 1.0 0.00 0.00 0.00 75 1019.3
20260830221052 72 237 0.0 3.0 0.00 0.00 0.00 75 1019.2
20260830220552 72 237 0.0 3.0 0.00 0.00 0.00 75 1019.2
20260830220052 72 217 0.0 2.0 0.00 0.00 0.00 75 1019.1
20260830215556 72 217 0.0 2.0 0.00 0.00 0.00 75 1019.1
20260830215052 72 217 0.0 2.0 0.00 0.00 0.00 75 1019.0
20260830214552 72 220 0.0 3.0 0.00 0.00 0.00 75 1019.0
20260830214051 72 220 0.0 3.0 0.00 0.00 0.00 74 1019.1
20260830213551 72 201 0.0 0.0 0.00 0.00 0.00 74 1019.1
20260830213051 72 198 0.0 2.0 0.00 0.00 0.00 74 1019.1
20260830212551 72 202 0.0 4.0 0.00 0.00 0.00 74 1019.2
20260830212051 72 154 1.0 5.0 0.00 0.00 0.00 74 1019.2
20260830211550 72 248 0.0 4.0 0.00 0.00 0.00 74 1019.2
20260830211050 73 248 2.0 4.0 0.00 0.00 0.00 74 1019.4
20260830210550 73 244 1.0 6.0 0.00 0.00 0.00 74 1019.4
20260830210049 73 251 2.0 5.0 0.00 0.00 0.00 73 1019.4
20260830205549 73 238 2.0 5.0 0.00 0.00 0.00 72 1019.4
20260830205049 73 208 0.0 4.0 0.00 0.00 0.00 72 1019.3
20260830204549 73 209 1.0 4.0 0.00 0.00 0.00 71 1019.4
20260830204049 73 264 2.0 7.0 0.00 0.00 0.00 71 1019.5
20260830203549 74 230 3.0 5.0 0.00 0.00 0.00 70 1019.6
20260830203048 74 236 0.0 0.0 0.00 0.00 0.00 71 1019.4
20260830202550 74 185 0.0 0.0 0.00 0.00 0.00 70 1019.3
20260830202047 74 185 0.0 0.0 0.00 0.00 0.00 70 1019.2
20260830201550 74 185 0.0 0.0 0.00 0.00 0.00 69 1019.1
20260830201052 74 185 0.0 0.0 0.00 0.00 0.00 69 1019.0
20260830200547 75 186 0.0 0.0 0.00 0.00 0.00 69 1019.1
20260830200048 74 186 0.0 2.0 0.00 0.00 0.00 68 1019.0
20260830195547 75 259 0.0 3.0 0.00 0.00 0.00 67 1019.0
20260830195047 75 252 0.0 7.0 0.00 0.00 0.00 67 1019.0
20260830194601 75 299 0.0 8.0 0.00 0.00 0.00 68 1018.9
20260830194047 75 263 2.0 8.0 0.00 0.00 0.00 68 1018.9
20260830193550 76 162 1.0 6.0 0.00 0.00 0.00 69 1019.0
20260830193046 76 277 2.0 6.0 0.00 0.00 0.00 69 1019.0
20260830192546 77 207 0.0 0.0 0.00 0.00 0.00 68 1018.9
20260830192046 77 208 0.0 0.0 0.00 0.00 0.00 67 1018.9
20260830191546 77 208 0.0 0.0 0.00 0.00 0.00 67 1018.7
20260830191048 78 208 0.0 0.0 0.00 0.00 0.00 66 1018.7
20260830190546 78 208 0.0 0.0 0.00 0.00 0.00 66 1018.7
20260830190045 78 208 0.0 0.0 0.00 0.00 0.00 65 1018.8
20260830185545 79 208 0.0 0.0 0.00 0.00 0.00 64 1018.7
20260830185044 79 207 0.0 0.0 0.00 0.00 0.00 64 1018.7
20260830184544 79 209 0.0 1.0 0.00 0.00 0.00 64 1018.7
20260830184045 80 209 0.0 3.0 0.00 0.00 0.00 64 1018.8
20260830183545 80 236 0.0 3.0 0.00 0.00 0.00 63 1018.8
20260830183045 80 236 1.0 3.0 0.00 0.00 0.00 63 1018.8
20260830182543 80 249 0.0 3.0 0.00 0.00 0.00 63 1018.8
20260830182043 80 250 1.0 4.0 0.00 0.00 0.00 62 1018.9
20260830181543 80 215 1.0 4.0 0.00 0.00 0.00 62 1018.9
20260830181044 80 241 0.0 4.0 0.00 0.00 0.00 63 1018.9
20260830180543 80 241 1.0 4.0 0.00 0.00 0.00 61 1018.9
20260830180041 80 238 2.0 6.0 0.00 0.00 0.00 60 1019.0
20260830175542 80 283 1.0 6.0 0.00 0.00 0.00 58 1019.0
20260830175041 80 246 2.0 7.0 0.00 0.00 0.00 60 1019.0
20260830174556 80 283 3.0 7.0 0.00 0.00 0.00 60 1018.9
20260830174039 80 336 0.0 7.0 0.00 0.00 0.00 61 1019.0
20260830173541 80 227 3.0 7.0 0.00 0.00 0.00 59 1019.2
20260830173041 80 281 2.0 7.0 0.00 0.00 0.00 60 1019.3
20260830172537 80 263 1.0 7.0 0.00 0.00 0.00 60 1019.3
20260830172037 80 111 1.0 7.0 0.00 0.00 0.00 61 1019.3
20260830171540 80 257 4.0 7.0 0.00 0.00 0.00 62 1019.3
20260830171036 79 217 0.0 6.0 0.00 0.00 0.00 64 1019.2
20260830170534 79 237 2.0 9.0 0.00 0.00 0.00 62 1019.3
20260830170033 79 242 2.0 9.0 0.00 0.00 0.00 62 1019.4
20260830165533 79 238 3.0 10.0 0.00 0.00 0.00 61 1019.6
20260830165032 79 247 5.0 10.0 0.00 0.00 0.00 60 1019.7
20260830164531 79 242 3.0 9.0 0.00 0.00 0.00 62 1019.6
20260830164031 78 211 3.0 11.0 0.00 0.00 0.00 63 1019.6
20260830163529 78 215 6.0 11.0 0.00 0.00 0.00 63 1019.6
20260830163033 78 186 3.0 8.0 0.00 0.00 0.00 65 1019.7
20260830162527 78 235 3.0 7.0 0.00 0.00 0.00 66 1019.9
20260830162026 77 161 2.0 9.0 0.00 0.00 0.00 64 1020.0
20260830161524 77 261 3.0 8.0 0.00 0.00 0.00 64 1020.0
20260830161024 77 275 3.0 8.0 0.00 0.00 0.00 65 1020.1
20260830160524 77 248 3.0 8.0 0.00 0.00 0.00 64 1020.1
20260830160024 77 200 3.0 11.0 0.00 0.00 0.00 65 1020.1
20260830155526 77 267 6.0 11.0 0.00 0.00 0.00 65 1020.1
20260830155024 76 262 1.0 9.0 0.00 0.00 0.00 67 1020.1
20260830154520 76 188 3.0 8.0 0.00 0.00 0.00 68 1020.3
20260830154017 75 145 2.0 10.0 0.00 0.00 0.00 70 1020.3
20260830153516 75 283 2.0 10.0 0.00 0.00 0.00 70 1020.3
20260830153029 74 261 4.0 7.0 0.00 0.00 0.00 70 1020.4
20260830152513 74 248 3.0 7.0 0.00 0.00 0.00 71 1020.5
20260830152011 73 230 1.0 7.0 0.00 0.00 0.00 72 1020.4
20260830151528 73 286 2.0 6.0 0.00 0.00 0.00 73 1020.5
20260830151009 72 217 4.0 6.0 0.00 0.00 0.00 74 1020.5
20260830150508 71 237 1.0 5.0 0.00 0.00 0.00 76 1020.6
20260830150007 71 266 0.0 2.0 0.00 0.00 0.00 79 1020.6
20260830145508 70 350 0.0 0.0 0.00 0.00 0.00 79 1020.7
20260830145004 69 351 0.0 0.0 0.00 0.00 0.00 80 1020.7
20260830144502 69 351 0.0 0.0 0.00 0.00 0.00 80 1020.7
20260830144002 68 351 0.0 0.0 0.00 0.00 0.00 81 1020.8
20260830143602 68 355 0.0 0.0 0.00 0.00 0.00 81 1020.8
20260830143059 68 355 0.0 0.0 0.00 0.00 0.00 82 1020.7
20260830142558 67 355 0.0 0.0 0.00 0.00 0.00 83 1020.7
20260830142056 67 355 0.0 0.0 0.00 0.00 0.00 83 1020.6
20260830141557 67 355 0.0 0.0 0.00 0.00 0.00 83 1020.4
20260830141055 66 355 0.0 0.0 0.00 0.00 0.00 84 1020.5
20260830140554 66 355 0.0 0.0 0.00 0.00 0.00 85 1020.6
20260830140112 66 355 0.0 0.0 0.00 0.00 0.00 86 1020.6
20260830135552 65 55 0.0 0.0 0.00 0.00 0.00 86 1020.6
20260830135051 65 55 0.0 0.0 0.00 0.00 0.00 87 1020.6
20260830134550 65 148 0.0 0.0 0.00 0.00 0.00 88 1020.6
20260830134050 64 148 0.0 0.0 0.00 0.00 0.00 88 1020.8
20260830133547 64 148 0.0 0.0 0.00 0.00 0.00 87 1021.0
20260830133049 64 148 0.0 0.0 0.00 0.00 0.00 88 1021.0
20260830132547 63 148 0.0 0.0 0.00 0.00 0.00 88 1020.9
20260830132047 63 148 0.0 0.0 0.00 0.00 0.00 88 1021.0
20260830131544 63 148 0.0 0.0 0.00 0.00 0.00 88 1021.1
20260830131043 63 148 0.0 0.0 0.00 0.00 0.00 88 1021.2
20260830130542 62 148 0.0 0.0 0.00 0.00 0.00 88 1021.3
20260830130052 62 148 0.0 0.0 0.00 0.00 0.00 88 1021.3
20260830125540 62 148 0.0 0.0 0.00 0.00 0.00 88 1021.3
20260830125040 62 148 0.0 0.0 0.00 0.00 0.00 88 1021.3
20260830124543 62 148 0.0 0.0 0.00 0.00 0.00 88 1021.3
20260830124042 62 148 0.0 0.0 0.00 0.00 0.00 88 1021.4
20260830123640 61 148 0.0 0.0 0.00 0.00 0.00 88 1021.4
20260830123038 61 148 0.0 0.0 0.00 0.00 0.00 88 1021.3
20260830122537 61 148 0.0 0.0 0.00 0.00 0.00 88 1021.4
20260830122035 61 148 0.0 0.0 0.00 0.00 0.00 88 1021.3
20260830121536 61 148 0.0 0.0 0.00 0.00 0.00 88 1021.2
20260830121035 60 148 0.0 0.0 0.00 0.00 0.00 88 1021.3
20260830120535 60 148 0.0 0.0 0.00 0.00 0.00 88 1021.4
20260830120035 60 148 0.0 0.0 0.00 0.00 0.00 88 1021.4
20260830115534 60 148 0.0 0.0 0.00 0.00 0.00 88 1021.4
20260830115033 60 148 0.0 0.0 0.00 0.00 0.00 88 1021.5
20260830114533 60 148 0.0 0.0 0.00 0.00 0.00 88 1021.5
20260830114031 59 148 0.0 0.0 0.00 0.00 0.00 87 1021.6
20260830113531 59 148 0.0 0.0 0.00 0.00 0.00 88 1021.7
20260830113031 59 148 0.0 0.0 0.00 0.00 0.00 87 1021.8
20260830112532 59 148 0.0 0.0 0.00 0.00 0.00 87 1021.8
20260830112031 59 148 0.0 0.0 0.00 0.00 0.00 87 1021.8
20260830111530 59 148 0.0 0.0 0.00 0.00 0.00 87 1021.9
20260830111030 59 148 0.0 0.0 0.00 0.00 0.00 87 1022.0
20260830110530 59 148 0.0 0.0 0.00 0.00 0.00 87 1022.0
20260830110040 59 148 0.0 0.0 0.00 0.00 0.00 87 1022.0
20260830105529 59 148 0.0 0.0 0.00 0.00 0.00 87 1021.9
20260830105029 59 148 0.0 0.0 0.00 0.00 0.00 87 1021.8
20260830104535 59 148 0.0 0.0 0.00 0.00 0.00 86 1021.8
20260830104029 59 148 0.0 0.0 0.00 0.00 0.00 86 1021.8
20260830103528 59 148 0.0 0.0 0.00 0.00 0.00 86 1021.7
20260830103028 59 148 0.0 0.0 0.00 0.00 0.00 86 1021.8
20260830102527 59 148 0.0 0.0 0.00 0.00 0.00 86 1021.8
20260830102027 59 148 0.0 0.0 0.00 0.00 0.00 86 1021.8
20260830101526 59 148 0.0 0.0 0.00 0.00 0.00 86 1021.7
20260830101026 59 148 0.0 0.0 0.00 0.00 0.00 86 1021.8
20260830100525 59 148 0.0 0.0 0.00 0.00 0.00 86 1021.7
20260830100025 59 148 0.0 0.0 0.00 0.00 0.00 86 1021.9
20260830095525 60 148 0.0 0.0 0.00 0.00 0.00 86 1021.9
20260830095023 60 148 0.0 0.0 0.00 0.00 0.00 86 1021.9
20260830094523 60 148 0.0 0.0 0.00 0.00 0.00 86 1022.1
20260830094022 60 148 0.0 0.0 0.00 0.00 0.00 86 1022.0
20260830093521 60 148 0.0 0.0 0.00 0.00 0.00 86 1022.1
20260830093021 60 148 0.0 0.0 0.00 0.00 0.00 86 1022.1
20260830092525 60 148 0.0 0.0 0.00 0.00 0.00 86 1022.2
20260830092025 60 148 0.0 0.0 0.00 0.00 0.00 86 1022.2
20260830091520 60 148 0.0 0.0 0.00 0.00 0.00 86 1022.2
20260830091022 60 148 0.0 0.0 0.00 0.00 0.00 86 1022.2
20260830090520 60 148 0.0 0.0 0.00 0.00 0.00 86 1022.2
20260830090020 60 148 0.0 0.0 0.00 0.00 0.00 86 1022.2
20260830085518 60 148 0.0 0.0 0.00 0.00 0.00 86 1022.3
20260830085022 60 148 0.0 0.0 0.00 0.00 0.00 86 1022.3
20260830084518 60 148 0.0 0.0 0.00 0.00 0.00 86 1022.2
20260830084018 60 148 0.0 0.0 0.00 0.00 0.00 86 1022.1
20260830083517 60 148 0.0 0.0 0.00 0.00 0.00 86 1022.2
20260830083016 60 148 0.0 0.0 0.00 0.00 0.00 86 1022.3
20260830082516 60 148 0.0 0.0 0.00 0.00 0.00 86 1022.4
20260830082015 60 148 0.0 0.0 0.00 0.00 0.00 86 1022.4
20260830081514 60 148 0.0 0.0 0.00 0.00 0.00 86 1022.5
20260830081014 60 148 0.0 0.0 0.00 0.00 0.00 86 1022.4
20260830080514 60 148 0.0 0.0 0.00 0.00 0.00 85 1022.6
20260830080013 60 148 0.0 0.0 0.00 0.00 0.00 85 1022.5
20260830075514 60 148 0.0 0.0 0.00 0.00 0.00 85 1022.6
20260830075014 60 148 0.0 0.0 0.00 0.00 0.00 85 1022.6
20260830074512 60 148 0.0 0.0 0.00 0.00 0.00 85 1022.6
20260830074016 60 148 0.0 0.0 0.00 0.00 0.00 85 1022.6
20260830073513 60 148 0.0 0.0 0.00 0.00 0.00 85 1022.7
20260830073012 60 148 0.0 0.0 0.00 0.00 0.00 85 1022.6
20260830072513 60 148 0.0 0.0 0.00 0.00 0.00 85 1022.6
20260830072013 60 148 0.0 0.0 0.00 0.00 0.00 85 1022.6
20260830071530 60 148 0.0 0.0 0.00 0.00 0.00 85 1022.6
20260830071011 60 148 0.0 0.0 0.00 0.00 0.00 85 1022.5
20260830070510 60 148 0.0 0.0 0.00 0.00 0.00 85 1022.6
20260830070019 60 148 0.0 0.0 0.00 0.00 0.00 85 1022.5
20260830065512 60 148 0.0 0.0 0.00 0.00 0.00 85 1022.7
20260830065011 60 148 0.0 0.0 0.00 0.00 0.00 85 1022.6
20260830064510 60 148 0.0 0.0 0.00 0.00 0.00 85 1022.6
20260830064010 60 148 0.0 0.0 0.00 0.00 0.00 84 1022.5
20260830063511 60 148 0.0 0.0 0.00 0.00 0.00 84 1022.6
20260830063010 60 148 0.0 0.0 0.00 0.00 0.00 84 1022.5
20260830062509 60 148 0.0 0.0 0.00 0.00 0.00 84 1022.5
20260830062009 60 148 0.0 0.0 0.00 0.00 0.00 84 1022.5
20260830061508 60 148 0.0 0.0 0.00 0.00 0.00 84 1022.5
20260830061008 61 148 0.0 0.0 0.00 0.00 0.00 84 1022.5
20260830060507 61 148 0.0 0.0 0.00 0.00 0.00 84 1022.5
20260830060008 61 148 0.0 0.0 0.00 0.00 0.00 84 1022.5
20260830055507 61 148 0.0 0.0 0.00 0.00 0.00 84 1022.7
20260830055008 61 148 0.0 0.0 0.00 0.00 0.00 84 1022.7
20260830054506 61 148 0.0 0.0 0.00 0.00 0.00 84 1022.6
20260830054007 61 148 0.0 0.0 0.00 0.00 0.00 84 1022.5
20260830053506 61 148 0.0 0.0 0.00 0.00 0.00 84 1022.5
20260830053007 61 148 0.0 0.0 0.00 0.00 0.00 84 1022.5
20260830052507 61 148 0.0 0.0 0.00 0.00 0.00 84 1022.5
20260830052008 61 148 0.0 0.0 0.00 0.00 0.00 84 1022.5
20260830051511 61 148 0.0 0.0 0.00 0.00 0.00 83 1022.5